{"data":{"norad_id":66216,"intl_designator":"2025-244L","name":"STARLINK-35709","alt_names":[],"object_type":"PAYLOAD","status":"ACTIVE","operator":null,"country":"US","launch_date":"2025-10-28","launch_site_code":"AFWTR","launch_vehicle":null,"mission":null,"orbit_class":"UNKNOWN","rcs_meters":null,"size_class":null,"mass_kg":null,"dimensions":null,"purposes":["comms"],"wikipedia_slug":null,"has_3d_model":false,"image_url":null,"decayed_at":null,"tle_current":{"epoch":"2026-09-20T16:05:17.259360Z","epoch_age_seconds":81996,"freshness":"FRESH","line1":"1 66216U 25244L   26263.67033865  .00011208  00000+0  34235-3 0  9996","line2":"2 66216  53.1667  42.7129 0000423 329.9504  30.1474 15.34399300 51537","mean_motion":15.343993,"eccentricity":4.23e-5,"inclination_deg":53.1667,"raan_deg":42.7129,"arg_perigee_deg":329.9504,"mean_anomaly_deg":30.1474,"bstar":0.00034235,"rev_number":5153,"period_min":93.847800895113,"perigee_km":462.41595312525,"apogee_km":462.99468838558,"semimajor_km":6840.8423207554,"source":"CELESTRAK","updated_at":"2026-09-21T09:00:35.841655Z"}}}